FW3640 Weather Reports


time (UTC)temp
C
wind
direction
speed
KPH
gust
KPH
rain 1hr
cm
rain 24hr
cm
rain mn
cm
humidity
%
barometer
mb
20260505075717 13 0.0 0.0 0.00 0.00 0.00 60 1016.6
20260505074717 14 0.0 0.0 0.00 0.00 0.00 60 1016.5
20260505073717 14 0.0 0.0 0.00 0.00 0.00 59 1016.5
20260505072737 14 0.0 0.0 0.00 0.00 0.00 58 1016.4
20260505071717 15 0.0 0.0 0.00 0.00 0.00 58 1016.5
20260505070737 15 0.0 0.0 0.00 0.00 0.00 57 1016.4
20260505065717 15 0.0 0.0 0.00 0.00 0.00 56 1016.4
20260505064735 15 0.0 0.0 0.00 0.00 0.00 56 1016.3
20260505063717 15 0.0 0.0 0.00 0.00 0.00 56 1016.4
20260505062717 16 338 1.6 3.2 0.00 0.00 0.00 56 1016.3
20260505061717 16 0.0 0.0 0.00 0.00 0.00 55 1016.2
20260505060757 16 0.0 0.0 0.00 0.00 0.00 55 1016.3
20260505055717 16 0.0 1.6 0.00 0.00 0.00 55 1016.4
20260505054717 16 0.0 1.6 0.00 0.00 0.00 55 1016.3
20260505053717 16 0.0 0.0 0.00 0.00 0.00 54 1016.4
20260505052717 16 0.0 0.0 0.00 0.00 0.00 54 1016.5
20260505051717 16 0.0 1.6 0.00 0.00 0.00 54 1016.6
20260505050717 16 0.0 0.0 0.00 0.00 0.00 54 1016.6
20260505041717 17 0.0 0.0 0.00 0.00 0.00 53 1016.6
20260505040757 17 0.0 3.2 0.00 0.00 0.00 52 1016.5
20260505035717 17 0.0 1.6 0.00 0.00 0.00 52 1016.6
20260505034737 17 338 1.6 4.8 0.00 0.00 0.00 52 1016.6
20260505033717 18 0.0 0.0 0.00 0.00 0.00 51 1016.5
20260505032717 18 0.0 3.2 0.00 0.00 0.00 51 1016.5
20260505031737 18 0.0 0.0 0.00 0.00 0.00 50 1016.5
20260505030717 18 0.0 3.2 0.00 0.00 0.00 50 1016.5
20260505025717 18 90 1.6 4.8 0.00 0.00 0.00 50 1016.6
20260505024737 18 0.0 0.0 0.00 0.00 0.00 49 1016.5
20260505023717 19 0.0 0.0 0.00 0.00 0.00 49 1016.5
20260505022716 19 0.0 0.0 0.00 0.00 0.00 48 1016.4
20260505021737 20 0.0 4.8 0.00 0.00 0.00 48 1016.2
20260505020716 20 0.0 3.2 0.00 0.00 0.00 47 1016.2
20260505015716 20 90 1.6 4.8 0.00 0.00 0.00 45 1016.2
20260505014717 20 68 1.6 4.8 0.00 0.00 0.00 42 1016.0
20260505013717 20 0.0 1.6 0.00 0.00 0.00 37 1015.9
20260505012717 20 0.0 4.8 0.00 0.00 0.00 35 1015.7
20260505011717 21 0.0 0.0 0.00 0.00 0.00 35 1015.4
20260505010717 21 0.0 1.6 0.00 0.00 0.00 34 1015.3
20260505005717 21 0.0 0.0 0.00 0.00 0.00 33 1015.2
20260505004757 21 0.0 3.2 0.00 0.00 0.00 32 1015.0
20260505003717 21 0.0 0.0 0.00 0.00 0.00 32 1015.0
20260505002716 22 0.0 1.6 0.00 0.00 0.00 31 1014.8
20260505001717 22 0.0 1.6 0.00 0.00 0.00 31 1014.8
20260505000736 22 0.0 0.0 0.00 0.00 0.00 30 1014.8
20260504235726 22 0.0 3.2 0.00 0.00 0.00 29 1014.8
20260504235117 23 0.0 0.0 0.00 0.00 0.00 29 1014.7
20260504234117 23 0.0 0.0 0.00 0.00 0.00 29 1014.5
20260504233117 23 0.0 1.6 0.00 0.00 0.00 28 1014.3
20260504232117 23 0.0 1.6 0.00 0.00 0.00 28 1014.3
20260504231117 24 0.0 1.6 0.00 0.00 0.00 26 1014.2
20260504230117 24 0.0 1.6 0.00 0.00 0.00 25 1014.2
20260504225137 25 0.0 1.6 0.00 0.00 0.00 25 1014.2
20260504224137 25 0.0 1.6 0.00 0.00 0.00 25 1014.2
20260504223117 25 68 1.6 4.8 0.00 0.00 0.00 22 1014.2
20260504222117 26 0.0 3.2 0.00 0.00 0.00 23 1014.2
20260504221137 26 90 1.6 4.8 0.00 0.00 0.00 21 1014.2
20260504220117 26 0.0 1.6 0.00 0.00 0.00 22 1014.2
20260504215117 26 0.0 0.0 0.00 0.00 0.00 24 1014.3
20260504214117 26 0.0 1.6 0.00 0.00 0.00 25 1014.4
20260504213117 26 0.0 3.2 0.00 0.00 0.00 21 1014.4
20260504212117 26 338 1.6 3.2 0.00 0.00 0.00 21 1014.4
20260504211117 26 338 1.6 4.8 0.00 0.00 0.00 23 1014.4
20260504210117 26 270 1.6 3.2 0.00 0.00 0.00 21 1014.5
20260504205117 26 68 1.6 3.2 0.00 0.00 0.00 23 1014.5
20260504204117 26 315 3.2 4.8 0.00 0.00 0.00 19 1014.7
20260504203117 26 0.0 1.6 0.00 0.00 0.00 23 1014.6
20260504202117 26 293 1.6 4.8 0.00 0.00 0.00 21 1014.8
20260504201117 26 180 1.6 6.4 0.00 0.00 0.00 25 1015.0
20260504200117 26 180 1.6 6.4 0.00 0.00 0.00 22 1015.1
20260504195117 27 293 4.8 11.3 0.00 0.00 0.00 21 1015.1
20260504194116 26 0.0 1.6 0.00 0.00 0.00 26 1015.1
20260504193116 26 113 1.6 6.4 0.00 0.00 0.00 28 1015.1
20260504192116 26 0.0 1.6 0.00 0.00 0.00 23 1015.3
20260504191116 26 293 1.6 6.4 0.00 0.00 0.00 24 1015.4
20260504190116 26 0.0 4.8 0.00 0.00 0.00 26 1015.6
20260504185137 26 0.0 1.6 0.00 0.00 0.00 29 1015.8
20260504184136 25 0.0 0.0 0.00 0.00 0.00 24 1015.8
20260504183117 25 0.0 3.2 0.00 0.00 0.00 27 1015.8
20260504182116 25 0.0 3.2 0.00 0.00 0.00 32 1016.0
20260504181136 25 0.0 0.0 0.00 0.00 0.00 24 1016.0
20260504180116 25 315 3.2 12.9 0.00 0.00 0.00 24 1016.1
20260504175116 25 315 1.6 4.8 0.00 0.00 0.00 27 1016.2
20260504174116 25 0.0 1.6 0.00 0.00 0.00 33 1016.4
20260504173116 25 293 3.2 8.0 0.00 0.00 0.00 29 1016.4
20260504172136 23 338 1.6 3.2 0.00 0.00 0.00 30 1016.7
20260504171117 24 315 4.8 11.3 0.00 0.00 0.00 29 1017.0
20260504170116 23 315 4.8 8.0 0.00 0.00 0.00 27 1016.9
20260504160116 22 68 1.6 8.0 0.00 0.00 0.00 33 1017.7
20260504151136 21 293 1.6 6.4 0.00 0.00 0.00 43 1017.9
20260504150116 20 338 1.6 4.8 0.00 0.00 0.00 41 1018.0
20260504141116 18 0.0 1.6 0.00 0.03 0.00 51 1018.2
20260504140116 17 315 1.6 3.2 0.00 0.03 0.00 50 1018.2
20260504130116 15 0.0 1.6 0.00 0.03 0.00 62 1018.4
20260504120115 11 0.0 0.0 0.00 0.03 0.00 77 1018.5
20260504110137 9 0.0 0.0 0.00 0.03 0.00 76 1018.5
20260504100117 10 0.0 0.0 0.00 0.03 0.00 73 1018.3
20260504090137 10 0.0 0.0 0.00 0.03 0.00 69 1018.2
20260504081117 10 0.0 0.0 0.00 0.03 0.00 67 1018.3